Regional Weather Roundup
Issued by NWS

Home | Current Version | Previous Version | Graphics & Text | Print | Product List | Glossary On
Versions: 1 2 3 4 5 6 7 8 9 10 11 12 13 14 15 16 17 18 19 20 21 22 23 24 25 26 27 28 29 30 31 32 33 34 35 36 37 38 39 40 41 42 43 44 45 46 47 48 49 50
000
ASUS45 KCYS 031110
RWRWY

WYOMING REGIONAL WEATHER ROUNDUP
NATIONAL WEATHER SERVICE CHEYENNE WY
500 AM MDT FRI JUL 03 2015

NOTE:  "FAIR" INDICATES FEW OR NO CLOUDS BELOW 12,000 FEET
WITH NO SIGNIFICANT WEATHER AND/OR OBSTRUCTIONS TO VISIBILITY.

WYZ001-031200-
YELLOWSTONE NATIONAL PARK

CITY           SKY/WX    TMP DP  RH WIND       PRES   REMARKS
LK YELLOWSTONE   N/A     44  39  82 CALM      30.33S
W YELLOWSTONE  NOT AVBL

$$
WYZ002>013-054>058-071-098>099-031200-
NORTHERN WYOMING

CITY           SKY/WX    TMP DP  RH WIND       PRES   REMARKS
JACKSON        FAIR      50  43  76 CALM      30.23S
CODY           FAIR      64  48  55 SW7       30.14S
GREYBULL       FAIR      64  50  60 CALM      30.06F
WORLAND        FAIR      61  52  72 SW5       30.08R
SHERIDAN       FAIR      54  49  83 CALM      30.08S
BUFFALO        MOCLDY    59  48  67 CALM      30.13F
GILLETTE       FAIR      56  52  86 S10       30.11F
HULETT         FAIR      55  52  88 SW5       30.13S
NEWCASTLE      FAIR      59  54  82 CALM      30.15R

$$
WYZ014>020-022>026-101>103-031200-
CENTRAL WYOMING

CITY           SKY/WX    TMP DP  RH WIND       PRES   REMARKS
BIG PINEY      FAIR      51  42  71 NW5       30.29S
PINEDALE       FAIR      45  41  87 W5        30.31R
DUBOIS         FAIR      54  46  76 CALM      30.30S
LANDER         FAIR      59  51  75 NW3       30.18F
RIVERTON       FAIR      59  51  75 NW7       30.17F
CASPER         FAIR      54  50  86 CALM      30.17S
DOUGLAS        FAIR      57  54  89 S5        30.17F

$$
WYZ021-027>030-104>119-031200-
SOUTHERN WYOMING

CITY           SKY/WX    TMP DP  RH WIND       PRES   REMARKS
EVANSTON       FAIR      59  42  53 SE7       30.26S
KEMMERER       FAIR      55  45  67 N10       30.28S
FORT BRIDGER   SUNNY     57  46  67 N6        30.29S
ROCK SPRINGS   FAIR      58  50  75 E6        30.24S
DIXON          FAIR      55  45  68 NE6       30.24S
RAWLINS        FAIR      53  51  93 NE5       30.26S
SARATOGA       FAIR      46  45  93 S5        30.27F
LARAMIE        FAIR      49  47  93 S7        30.27S
CHEYENNE       FAIR      57  52  83 N5        30.23R
TORRINGTON     LGT RAIN  62  59  90 SE3       30.13F
PINE BLUFFS    PTSUNNY   59  55  88 CALM      30.19R

$$


USA.gov is the U.S. government's official web portal to all federal, state and local government web resources and services.